Flag for Canada Weather past 2 weeks in Cranbrook, British Columbia, Canada

Now
75 °F

Passing clouds.


Feels Like: 77 °F
Forecast: 61 / 94 °F
Wind: 7 mph from Southwest

Location: Cranbrook

Current Time: Jul 29, 2014 at 12:04:30 AM

Latest Report: Jul 28, 2014 at 11:00 PM


Visibility: 25 mi

Pressure: 30.08 "Hg

Humidity: 34%

Dew point: 45 °F

Location of CranbrookLocation

Historic Weather in Cranbrook — Graph

°F

Cranbrook temperature yesterday

Maximum temperature yesterday: 93 °F (at 5:00 PM)
Minimum temperature yesterday: 59 °F (at 6:00 AM)
Average temperature yesterday: 74 °F

Past Weeks' High & Low Weather Summary

 TemperatureHumidityPressure
High95 °F (Jul 16, 7:00 PM)94% (Jul 21, 6:00 AM)30.26 "Hg (Jul 21, 6:00 AM)
Low48 °F (Jul 26, 6:00 AM)15% (Jul 16, 7:00 PM)29.62 "Hg (Jul 17, 5:00 PM)
Average70 °F45%29.95 "Hg
* Reported Jul 13 11:00 PM — Jul 28 11:00 PM, Cranbrook, Weather by CustomWeather, © 2014

Note: Actual official high and low records may vary slightly from our data, if they occured in-between our weather recording intervals... More about our weather records

Advertising

Cranbrook weather history for previous 24 hours

 ConditionsComfort  
Time TempWeatherWind HumidityBarometerVisibility
11:00 PM
Jul 28
75 °FPassing clouds.7 mph34%30.08 "Hg25 mi
10:00 PM79 °FPassing clouds.6 mph28%30.06 "Hg25 mi
9:00 PM84 °FPassing clouds.2 mph22%30.04 "Hg25 mi
8:00 PM90 °FScattered clouds.5 mph17%30.03 "Hg25 mi
7:00 PM91 °FScattered clouds.6 mph15%30.03 "Hg25 mi
6:00 PM91 °FScattered clouds.5 mph16%30.04 "Hg25 mi
5:00 PM93 °FPartly sunny.6 mph15%30.06 "Hg25 mi
4:00 PM90 °FScattered clouds.12 mph18%30.08 "Hg25 mi
3:00 PM86 °FBroken clouds.6 mph24%30.11 "Hg20 mi
2:00 PM84 °FBroken clouds.5 mph25%30.14 "Hg20 mi
1:00 PM79 °FBroken clouds.5 mph28%30.16 "Hg20 mi
12:00 PM73 °FBroken clouds.No wind33%30.19 "Hg20 mi
11:00 AM66 °FPartly sunny.No wind43%30.20 "Hg25 mi
10:00 AM66 °FPartly sunny.6 mph43%30.21 "Hg25 mi
9:00 AM64 °FPartly sunny.No wind49%30.22 "Hg25 mi
8:00 AM61 °FPartly sunny.2 mph52%30.20 "Hg25 mi
7:00 AM59 °FPartly cloudy.3 mph55%30.19 "Hg25 mi
6:00 AM59 °FPartly cloudy.6 mph55%30.17 "Hg25 mi
5:00 AM61 °FPassing clouds.8 mph52%30.16 "Hg25 mi
4:00 AM63 °FPassing clouds.7 mph49%30.14 "Hg25 mi
3:00 AM63 °FPassing clouds.7 mph49%30.14 "Hg25 mi
2:00 AM64 °FPassing clouds.6 mph46%30.14 "Hg25 mi
1:00 AM70 °FPassing clouds.6 mph38%30.12 "Hg25 mi
12:00 AM68 °FPassing clouds.3 mph40%30.13 "Hg25 mi
Weather by CustomWeather, © 2014

See weather overviewHow to use our weather pages